Printer-friendly version

IAU Minor Planet Center

Minor Planet Center

MPEC 2002-A75: 2002 AW11

The following Minor Planet Electronic Circular may be linked-to from your own Web pages, but must not otherwise be redistributed electronically.


Read MPEC 2002-A74 Read MPEC 2002-A76


M.P.E.C. 2002-A75                                Issued 2002 Jan. 13, 00:40 UT

     The Minor Planet Electronic Circulars contain information on unusual
         minor planets and routine data on comets.  They are published
   on behalf of Commission 20 of the International Astronomical Union by the
          Minor Planet Center, Smithsonian Astrophysical Observatory,
                          Cambridge, MA 02138, U.S.A.

             Prepared using the Tamkin Foundation Computer Network

                              MPC@CFA.HARVARD.EDU
          URL http://cfa-www.harvard.edu/iau/mpc.html  ISSN 1523-6714

                                   2002 AW11

Observations:
     K02A11W* C2002 01 09.48812 13 42 40.57 +19 23 33.1          18.9        704
     K02A11W  C2002 01 09.50378 13 42 46.76 +19 23 35.8          19.5        704
     K02A11W  C2002 01 09.51884 13 42 52.73 +19 23 38.7          19.4        704
     K02A11W  C2002 01 09.53399 13 42 58.76 +19 23 40.9          19.6        704
     K02A11W  C2002 01 11.42807 13 55 44.11 +19 28 14.2          19.4        704
     K02A11W  C2002 01 11.44331 13 55 50.16 +19 28 16.3          19.7        704
     K02A11W  C2002 01 11.45858 13 55 56.34 +19 28 17.9          20.0        704
     K02A11W  C2002 01 11.47412 13 56 02.38 +19 28 21.6          19.9        704
     K02A11W  C2002 01 11.50718 13 56 15.20 +19 28 23.2          19.2 R      649
     K02A11W  C2002 01 11.51175 13 56 16.88 +19 28 22.7          19.3 R      649
     K02A11W  C2002 01 11.51853 13 56 19.65 +19 28 24.4          19.0 R      649
     K02A11W  C2002 01 12.45786 14 02 38.68 +19 29 44.4          19.1        704
     K02A11W  C2002 01 12.47355 14 02 44.92 +19 29 45.4          20.0        704
     K02A11W  C2002 01 12.48889 14 02 51.01 +19 29 47.0          19.5        704
     K02A11W  C2002 01 12.50431 14 02 57.11 +19 29 47.2          19.5        704

Observer details:
649 Powell Observatory, Louisburg.  Observer R. Trentman.  0.75-m Newtonian
    + CCD.
704 Lincoln Laboratory ETS, New Mexico.  Observers M. Blythe, F. Shelly,
    M. Bezpalko, R. Huber, L. Manguso, S. Adams, J. Piscitelli.  Measurers
    J. Stuart, R. Sayer, J. B. Evans, H. Viggh.  1.0-m f/2.15 reflector + CCD.

Orbital elements:
2002 AW11
Epoch 2002 Jan. 6.0 TT = JDT 2452280.5                  MPC
M 324.39776              (2000.0)            P               Q
n   0.62609383     Peri.   93.83401     -0.94546625     +0.13697817
a   1.3532450      Node    94.21228     -0.24300765     -0.90077071
e   0.2909892      Incl.   17.23658     +0.21688903     -0.41212754
P   1.57           H   19.1           G   0.15
From 15 observations 2002 Jan. 9-12.

Ephemeris:
2002 AW11                a,e,i = 1.35, 0.29, 17                  q = 0.9595
Date    TT    R. A. (2000) Decl.     Delta      r     Elong.  Phase     V
2002 01 06    13 19.24   +19 09.0    0.398    1.090    94.6    64.1    19.6
2002 01 16    14 26.21   +19 29.2    0.390    1.052    89.0    69.2    19.6
2002 01 26    15 29.35   +18 41.6    0.400    1.019    83.4    73.7    19.7
2002 02 05    16 24.96   +16 59.9    0.423    0.992    78.5    76.8    19.9
2002 02 15    17 12.58   +14 46.9    0.454    0.973    74.8    78.5    20.1
2002 02 25    17 53.63   +12 19.2    0.486    0.962    72.4    78.8    20.2
2002 03 07    18 29.99   +09 46.5    0.518    0.960    71.2    78.1    20.3
2002 03 17    19 03.11   +07 15.4    0.546    0.967    71.1    76.7    20.4
2002 03 27    19 33.92   +04 48.3    0.568    0.984    72.0    74.7    20.4
2002 04 06    20 03.01   +02 25.8    0.583    1.008    73.8    72.4    20.5
2002 04 16    20 30.57   +00 06.6    0.592    1.039    76.5    69.9    20.5
2002 04 26    20 56.57   -02 13.8    0.593    1.075    80.0    67.1    20.5
2002 05 06    21 20.92   -04 41.0    0.587    1.115    84.2    64.2    20.5
2002 05 16    21 43.30   -07 22.8    0.576    1.158    89.4    60.8    20.4
2002 05 26    22 03.31   -10 28.6    0.560    1.202    95.4    57.0    20.3
2002 06 05    22 20.45   -14 07.8    0.540    1.247   102.3    52.6    20.2
2002 06 15    22 33.91   -18 29.4    0.521    1.292   110.2    47.5    20.0
2002 06 25    22 42.69   -23 37.7    0.504    1.336   119.1    41.7    19.9
2002 07 05    22 45.65   -29 26.3    0.494    1.379   128.4    35.3    19.7
2002 07 15    22 41.42   -35 33.3    0.494    1.420   137.5    28.9    19.6
2002 07 25    22 29.40   -41 18.0    0.508    1.460   144.5    23.8    19.6
2002 08 04    22 10.55   -45 54.0    0.539    1.497   147.5    21.4    19.7
2002 08 14    21 48.23   -48 49.1    0.585    1.532   145.5    22.0    19.9
2002 08 24    21 27.51   -49 59.5    0.648    1.565   140.2    24.4    20.3
2002 09 03    21 12.30   -49 45.9    0.723    1.595   133.5    27.3    20.6
2002 09 13    21 04.16   -48 35.0    0.808    1.622   126.4    29.9    21.0
2002 09 23    21 02.73   -46 49.3    0.902    1.647   119.5    32.0    21.3
2002 10 03    21 06.70   -44 43.3    1.003    1.669   112.9    33.5    21.6
2002 10 13    21 14.82   -42 24.8    1.108    1.689   106.5    34.5    21.9

Brian G. Marsden             (C) Copyright 2002 MPC           M.P.E.C. 2002-A75

Read MPEC 2002-A74 Read MPEC 2002-A76


Our Web policy. Index to the CBAT/MPC/ICQ pages.


Valid HTML 4.01!